Weather History for Shawnee, OK

Change the Weather History Date:

Sunday, September 23, 2012

  Actual Average (KTIK) Record (KTIK)
Temperature  
Mean Temperature 73 °F -  
Max Temperature 86 °F 77 °F 91 °F (2005)
Min Temperature 60 °F 58 °F 48 °F (1999)
Cooling Degree Days 8    
Growing Degree Days 23 (Base 50)    
Moisture  
Dew Point 52 °F    
Average Humidity 50    
Maximum Humidity 73    
Minimum Humidity 40    
Precipitation  
Precipitation 0.00 in - - ()
Sea Level Pressure  
Sea Level Pressure 30.18 in    
Wind  
Wind Speed 8 mph (East)    
Max Wind Speed 15 mph    
Max Gust Speed 17 mph    
Visibility 10 miles    
Events      
Averages and records for this station are not official NWS values.
T = Trace of Precipitation, MM = Missing Value Source: NWS Daily Summary

Daily Weather History Graph

Daily Weather History Graph

Search for Another Location

Airport:

Trip Planner

Search our weather history database for the weather conditions in past years. The results will help you decide how hot, cold, wet, or windy it might be!

Date:

Astronomy

Sep. 23, 2012 Rise Set
Actual Time 7:16 AM CDT 7:22 PM CDT
Civil Twilight 6:51 AM CDT 7:47 PM CDT
Nautical Twilight 6:21 AM CDT 8:17 PM CDT
Astronomical Twilight 5:51 AM CDT 8:47 PM CDT
Moon 3:13 PM CDT (9/23) 12:42 AM CDT (9/23)
Length of Visible Light 12h 56m
Length of Day
12h 05m
First Quarter, 60% of the Moon is Illuminated
Sep 23
First Quarter
Sep 29
Full
Oct 8
Last Quarter
Oct 15
New
Oct 21
First Quarter

Hourly Weather History & Observations

Time (CDT) Temp. Heat Index Dew Point Humidity Pressure Visibility Wind Dir Wind Speed Gust Speed Precip Events Conditions
12:15 AM 71.6 °F - 50.0 °F 46% 30.17 in 10.0 mi ENE 9.2 mph - N/A   Clear
12:35 AM 71.6 °F - 51.8 °F 50% 30.17 in 10.0 mi ENE 9.2 mph - N/A   Clear
12:55 AM 68.0 °F - 48.2 °F 49% 30.17 in 10.0 mi ENE 8.1 mph - N/A   Clear
1:15 AM 68.0 °F - 48.2 °F 49% 30.17 in 10.0 mi ENE 11.5 mph 16.1 mph N/A   Clear
1:35 AM 68.0 °F - 48.2 °F 49% 30.18 in 10.0 mi ENE 10.4 mph - N/A   Clear
1:55 AM 68.0 °F - 46.4 °F 46% 30.18 in 10.0 mi ENE 9.2 mph - N/A   Clear
2:15 AM 68.0 °F - 46.4 °F 46% 30.19 in 10.0 mi ENE 9.2 mph 16.1 mph N/A   Clear
2:35 AM 68.0 °F - 46.4 °F 46% 30.19 in 10.0 mi ENE 6.9 mph - N/A   Clear
2:55 AM 66.2 °F - 44.6 °F 46% 30.18 in 10.0 mi ENE 9.2 mph - N/A   Clear
3:15 AM 66.2 °F - 46.4 °F 49% 30.19 in 10.0 mi NE 6.9 mph - N/A   Clear
3:35 AM 64.4 °F - 44.6 °F 49% 30.18 in 10.0 mi NE 8.1 mph - N/A   Clear
3:55 AM 64.4 °F - 44.6 °F 49% 30.18 in 10.0 mi NE 9.2 mph - N/A   Clear
4:15 AM 64.4 °F - 44.6 °F 49% 30.19 in 10.0 mi NE 10.4 mph - N/A   Clear
4:35 AM 64.4 °F - 44.6 °F 49% 30.19 in 10.0 mi NE 9.2 mph - N/A   Clear
4:55 AM 62.6 °F - 42.8 °F 48% 30.19 in 10.0 mi NE 8.1 mph 16.1 mph N/A   Clear
5:15 AM 62.6 °F - 42.8 °F 48% 30.19 in 10.0 mi ENE 9.2 mph - N/A   Clear
5:35 AM 62.6 °F - 41.0 °F 45% 30.18 in 10.0 mi ENE 8.1 mph - N/A   Clear
5:55 AM 62.6 °F - 41.0 °F 45% 30.19 in 10.0 mi ENE 8.1 mph - N/A   Clear
6:15 AM 62.6 °F - 41.0 °F 45% 30.19 in 10.0 mi NE 5.8 mph - N/A   Clear
6:35 AM 62.6 °F - 41.0 °F 45% 30.20 in 10.0 mi ENE 5.8 mph - N/A   Clear
6:55 AM 62.6 °F - 41.0 °F 45% 30.21 in 10.0 mi NE 4.6 mph - N/A   Clear
7:15 AM 60.8 °F - 41.0 °F 48% 30.22 in 10.0 mi NE 3.5 mph - N/A   Clear
7:35 AM 60.8 °F - 42.8 °F 52% 30.21 in 10.0 mi ENE 4.6 mph - N/A   Clear
7:55 AM 62.6 °F - 42.8 °F 48% 30.23 in 10.0 mi NNE 8.1 mph - N/A   Clear
8:15 AM 62.6 °F - 42.8 °F 48% 30.24 in 10.0 mi North 8.1 mph - N/A   Clear
8:35 AM 62.6 °F - 44.6 °F 52% 30.25 in 10.0 mi NNE 8.1 mph - N/A   Clear
8:55 AM 62.6 °F - 42.8 °F 48% 30.26 in 10.0 mi NNE 15.0 mph - N/A   Clear
9:15 AM 62.6 °F - 42.8 °F 48% 30.26 in 10.0 mi NE 11.5 mph 17.3 mph N/A   Clear
9:35 AM 62.6 °F - 44.6 °F 52% 30.25 in 10.0 mi ENE 9.2 mph 16.1 mph N/A   Clear
9:55 AM 66.2 °F - 46.4 °F 49% 30.25 in 10.0 mi ENE 8.1 mph - N/A   Clear
10:15 AM 68.0 °F - 46.4 °F 46% 30.24 in 10.0 mi East 10.4 mph - N/A   Clear
10:35 AM 68.0 °F - 48.2 °F 49% 30.23 in 10.0 mi ESE 9.2 mph - N/A   Clear
10:55 AM 71.6 °F - 51.8 °F 50% 30.23 in 10.0 mi East 10.4 mph - N/A   Clear
11:35 AM 73.4 °F - 53.6 °F 50% 30.22 in 10.0 mi ESE 10.4 mph - N/A   Clear
11:55 AM 75.2 °F - 55.4 °F 50% 30.21 in 10.0 mi ESE 9.2 mph - N/A   Clear
12:15 PM 77.0 °F - 55.4 °F 47% 30.21 in 10.0 mi SSE 13.8 mph - N/A   Clear
12:35 PM 77.0 °F - 55.4 °F 47% 30.20 in 10.0 mi SE 9.2 mph - N/A   Clear
12:55 PM 77.0 °F - 55.4 °F 47% 30.20 in 10.0 mi SE 8.1 mph - N/A   Clear
1:15 PM 78.8 °F - 57.2 °F 47% 30.19 in 10.0 mi South 9.2 mph - N/A   Clear
1:55 PM 80.6 °F 81.1 °F 59.0 °F 48% 30.18 in 10.0 mi SE 3.5 mph - N/A   Clear
2:15 PM 82.4 °F 82.5 °F 59.0 °F 45% 30.17 in 10.0 mi SSE 5.8 mph - N/A   Clear
2:35 PM 82.4 °F 82.5 °F 59.0 °F 45% 30.17 in 10.0 mi East 3.5 mph - N/A   Clear
2:55 PM 82.4 °F 82.5 °F 59.0 °F 45% 30.16 in 10.0 mi East 6.9 mph - N/A   Clear
3:15 PM 84.2 °F 83.8 °F 59.0 °F 42% 30.15 in 10.0 mi ESE 4.6 mph - N/A   Clear
3:35 PM 84.2 °F 83.8 °F 59.0 °F 42% 30.15 in 10.0 mi East 8.1 mph - N/A   Clear
3:55 PM 86.0 °F 85.4 °F 59.0 °F 40% 30.14 in 10.0 mi ESE 4.6 mph - N/A   Clear
4:15 PM 86.0 °F 85.4 °F 59.0 °F 40% 30.14 in 10.0 mi SSE 3.5 mph - N/A   Clear
4:35 PM 86.0 °F 86.1 °F 60.8 °F 43% 30.13 in 10.0 mi ESE 8.1 mph - N/A   Clear
4:55 PM 86.0 °F 86.1 °F 60.8 °F 43% 30.12 in 10.0 mi East 9.2 mph - N/A   Clear
5:15 PM 84.2 °F 84.4 °F 60.8 °F 45% 30.12 in 10.0 mi East 8.1 mph - N/A   Clear
5:35 PM 84.2 °F 83.8 °F 59.0 °F 42% 30.12 in 10.0 mi ENE 9.2 mph - N/A   Clear
5:55 PM 82.4 °F 82.9 °F 60.8 °F 48% 30.12 in 10.0 mi East 8.1 mph - N/A   Clear
6:15 PM 82.4 °F 82.5 °F 59.0 °F 45% 30.11 in 10.0 mi ENE 10.4 mph - N/A   Clear
7:15 PM 80.6 °F 81.5 °F 60.8 °F 51% 30.11 in 10.0 mi East 10.4 mph - N/A   Clear
7:35 PM 78.8 °F - 59.0 °F 51% 30.12 in 10.0 mi East 6.9 mph - N/A   Clear
7:55 PM 78.8 °F - 60.8 °F 54% 30.12 in 10.0 mi East 8.1 mph - N/A   Clear
8:15 PM 77.0 °F - 60.8 °F 57% 30.12 in 10.0 mi East 9.2 mph - N/A   Clear
8:35 PM 77.0 °F - 60.8 °F 57% 30.13 in 10.0 mi East 9.2 mph - N/A   Clear
8:55 PM 73.4 °F - 59.0 °F 61% 30.13 in 10.0 mi East 11.5 mph 16.1 mph N/A   Clear
9:15 PM 73.4 °F - 60.8 °F 65% 30.13 in 10.0 mi East 10.4 mph 16.1 mph N/A   Clear
9:35 PM 71.6 °F - 59.0 °F 64% 30.13 in 10.0 mi East 10.4 mph - N/A   Clear
9:55 PM 71.6 °F - 59.0 °F 64% 30.14 in 10.0 mi East 6.9 mph - N/A   Clear
10:15 PM 71.6 °F - 60.8 °F 69% 30.13 in 10.0 mi East 6.9 mph - N/A   Clear
10:35 PM 71.6 °F - 60.8 °F 69% 30.13 in 10.0 mi East 5.8 mph - N/A   Clear
10:55 PM 68.0 °F - 59.0 °F 73% 30.13 in 10.0 mi East 4.6 mph - N/A   Clear
11:35 PM 68.0 °F - 59.0 °F 73% 30.13 in 10.0 mi East 6.9 mph - N/A   Clear
11:55 PM 68.0 °F - 59.0 °F 73% 30.13 in 10.0 mi East 5.8 mph - N/A   Clear